• En España
  • Lista de países
  • Para 7 días
  • Temperatura del agua
  • Mapa Satelital
  • El tiempo en el mapa
  • Informadores
  • user-avatar
    Iniciar sesión

    Tiempo cada hora Wiktoria

    Hoy, 22 Julio, Domingo

    Tiempo Temperatura Precipitaciones Viento Presión Humedad
    00:00 +4°C° 0 mm 2 mps 756 mmHg 93%
    01:00 +3°C° 0 mm 2 mps 756 mmHg 94%
    02:00 +3°C° 0 mm 2 mps 756 mmHg 94%
    03:00 +3°C° 0 mm 2 mps 756 mmHg 94%
    04:00 +3°C° 0 mm 2 mps 756 mmHg 93%
    05:00 +3°C° 0 mm 2 mps 756 mmHg 93%
    06:00 +2°C° 0 mm 2 mps 756 mmHg 93%
    07:00 +2°C° 0 mm 2 mps 756 mmHg 93%
    08:00 +4°C° 0 mm 2 mps 756 mmHg 88%
    09:00 +5°C° 0 mm 2 mps 756 mmHg 84%
    10:00 +7°C° 0 mm 3 mps 756 mmHg 79%
    11:00 +8°C° 0 mm 3 mps 755 mmHg 73%
    12:00 +10°C° 0 mm 3 mps 754 mmHg 67%
    13:00 +11°C° 0 mm 3 mps 754 mmHg 61%
    14:00 +11°C° 0 mm 3 mps 753 mmHg 62%
    15:00 +11°C° 0 mm 3 mps 753 mmHg 63%
    16:00 +11°C° 0 mm 3 mps 753 mmHg 64%
    17:00 +9°C° 0 mm 3 mps 753 mmHg 70%
    18:00 +8°C° 0 mm 3 mps 753 mmHg 75%
    19:00 +5°C° 0 mm 3 mps 753 mmHg 81%
    20:00 +4°C° 0 mm 3 mps 753 mmHg 81%
    21:00 +4°C° 0 mm 3 mps 753 mmHg 81%
    22:00 +4°C° 0 mm 4 mps 753 mmHg 82%
    23:00 +3°C° 0 mm 4 mps 753 mmHg 82%

    Mañana, 23 Julio, Lunes

    Tiempo Temperatura Precipitaciones Viento Presión Humedad
    00:00 +3°C° 0 mm 4 mps 752 mmHg 81%
    01:00 +3°C° 0 mm 4 mps 752 mmHg 81%
    02:00 +3°C° 0 mm 4 mps 752 mmHg 81%
    03:00 +3°C° 0 mm 4 mps 751 mmHg 82%
    04:00 +3°C° 0 mm 4 mps 751 mmHg 82%
    05:00 +2°C° 0 mm 5 mps 751 mmHg 82%
    06:00 +2°C° 0 mm 5 mps 750 mmHg 81%
    07:00 +2°C° 0 mm 5 mps 750 mmHg 81%
    08:00 +3°C° 0 mm 5 mps 750 mmHg 76%
    09:00 +4°C° 0 mm 6 mps 750 mmHg 71%
    10:00 +5°C° 0 mm 6 mps 749 mmHg 66%
    11:00 +7°C° 0,1 mm 6 mps 749 mmHg 67%
    12:00 +8°C° 0,1 mm 6 mps 748 mmHg 67%
    13:00 +8°C° 0,1 mm 7 mps 747 mmHg 68%
    14:00 +9°C° 0 mm 6 mps 746 mmHg 65%
    15:00 +10°C° 0 mm 6 mps 746 mmHg 63%
    16:00 +10°C° 0 mm 6 mps 746 mmHg 61%
    17:00 +9°C° 0,8 mm 5 mps 745 mmHg 70%
    18:00 +8°C° 0,8 mm 5 mps 745 mmHg 78%
    19:00 +7°C° 0,8 mm 5 mps 745 mmHg 87%
    20:00 +7°C° 0,5 mm 5 mps 745 mmHg 87%
    21:00 +7°C° 0,5 mm 6 mps 744 mmHg 86%
    22:00 +8°C° 0,5 mm 7 mps 744 mmHg 86%
    23:00 +8°C° 0,6 mm 6 mps 744 mmHg 88%

    Pasado mañana, 24 Julio, Martes

    Tiempo Temperatura Precipitaciones Viento Presión Humedad
    00:00 +8°C° 0,6 mm 5 mps 744 mmHg 90%
    01:00 +8°C° 0,6 mm 4 mps 744 mmHg 91%
    02:00 +8°C° 0 mm 4 mps 745 mmHg 92%
    03:00 +7°C° 0 mm 4 mps 745 mmHg 94%
    04:00 +8°C° 0 mm 3 mps 745 mmHg 95%
    05:00 +7°C° 0 mm 3 mps 746 mmHg 95%
    06:00 +5°C° 0 mm 3 mps 746 mmHg 96%
    07:00 +5°C° 0 mm 3 mps 747 mmHg 96%
    08:00 +7°C° 0 mm 3 mps 747 mmHg 94%
    09:00 +7°C° 0 mm 4 mps 748 mmHg 92%
    10:00 +10°C° 0 mm 4 mps 748 mmHg 89%
    11:00 +10°C° 0,1 mm 5 mps 748 mmHg 83%
    12:00 +11°C° 0,1 mm 6 mps 747 mmHg 77%
    13:00 +13°C° 0,1 mm 6 mps 747 mmHg 70%
    14:00 +13°C° 0,1 mm 6 mps 747 mmHg 72%
    15:00 +13°C° 0,1 mm 5 mps 747 mmHg 74%
    16:00 +13°C° 0,1 mm 5 mps 746 mmHg 75%
    17:00 +12°C° 0,1 mm 5 mps 747 mmHg 76%
    18:00 +12°C° 0,1 mm 5 mps 747 mmHg 76%
    19:00 +10°C° 0,1 mm 5 mps 747 mmHg 76%
    20:00 +11°C° 0,3 mm 4 mps 748 mmHg 80%
    21:00 +11°C° 0,3 mm 4 mps 748 mmHg 85%
    22:00 +10°C° 0,3 mm 4 mps 748 mmHg 89%
    23:00 +10°C° 0,1 mm 3 mps 748 mmHg 91%

    25 Julio, Miércoles

    Tiempo Temperatura Precipitaciones Viento Presión Humedad
    00:00 +9°C° 0,1 mm 3 mps 748 mmHg 94%
    01:00 +9°C° 0,1 mm 2 mps 748 mmHg 96%
    02:00 +8°C° 0 mm 2 mps 749 mmHg 96%
    03:00 +7°C° 0 mm 2 mps 749 mmHg 96%
    04:00 +7°C° 0 mm 2 mps 749 mmHg 96%
    05:00 +7°C° 0 mm 2 mps 749 mmHg 96%
    06:00 +7°C° 0 mm 2 mps 750 mmHg 95%
    07:00 +7°C° 0 mm 2 mps 750 mmHg 95%
    08:00 +8°C° 0 mm 2 mps 750 mmHg 91%
    09:00 +9°C° 0 mm 3 mps 751 mmHg 87%
    10:00 +10°C° 0 mm 3 mps 751 mmHg 83%
    11:00 +11°C° 0 mm 3 mps 751 mmHg 77%
    12:00 +12°C° 0 mm 4 mps 750 mmHg 72%
    13:00 +13°C° 0 mm 4 mps 750 mmHg 67%
    14:00 +12°C° 0,1 mm 4 mps 750 mmHg 69%
    15:00 +12°C° 0,1 mm 3 mps 750 mmHg 71%
    16:00 +12°C° 0,1 mm 3 mps 750 mmHg 73%
    17:00 +12°C° 0 mm 2 mps 751 mmHg 77%
    18:00 +9°C° 0 mm 2 mps 751 mmHg 81%
    19:00 +9°C° 0 mm 1 mps 751 mmHg 85%
    20:00 +8°C° 0 mm 1 mps 752 mmHg 86%
    21:00 +8°C° 0 mm 1 mps 752 mmHg 87%
    22:00 +8°C° 0 mm 1 mps 752 mmHg 89%
    23:00 +7°C° 0 mm 1 mps 752 mmHg 89%

    26 Julio, Jueves

    Tiempo Temperatura Precipitaciones Viento Presión Humedad
    00:00 +6°C° 0 mm 1 mps 752 mmHg 90%
    01:00 +5°C° 0 mm 0 mps 752 mmHg 91%
    02:00 +5°C° 0 mm 0 mps 752 mmHg 92%
    03:00 +4°C° 0 mm 0 mps 752 mmHg 92%
    04:00 +5°C° 0 mm 1 mps 752 mmHg 92%
    05:00 +5°C° 0 mm 1 mps 752 mmHg 93%
    06:00 +5°C° 0 mm 1 mps 752 mmHg 94%
    07:00 +4°C° 0 mm 2 mps 753 mmHg 95%
    08:00 +5°C° 0 mm 2 mps 753 mmHg 92%
    09:00 +6°C° 0 mm 2 mps 753 mmHg 89%
    10:00 +8°C° 0 mm 2 mps 753 mmHg 86%
    11:00 +9°C° 0 mm 3 mps 752 mmHg 83%
    12:00 +10°C° 0 mm 3 mps 752 mmHg 80%
    13:00 +11°C° 0 mm 3 mps 751 mmHg 78%
    14:00 +11°C° 0 mm 3 mps 751 mmHg 77%
    15:00 +12°C° 0 mm 3 mps 750 mmHg 77%
    16:00 +12°C° 0 mm 3 mps 750 mmHg 77%
    17:00 +10°C° 0 mm 3 mps 750 mmHg 82%
    18:00 +9°C° 0 mm 3 mps 750 mmHg 88%
    19:00 +8°C° 0 mm 3 mps 751 mmHg 93%
    20:00 +7°C° 0 mm 3 mps 751 mmHg 92%
    21:00 +7°C° 0 mm 3 mps 751 mmHg 91%
    22:00 +7°C° 0 mm 3 mps 751 mmHg 90%
    23:00 +7°C° 0 mm 3 mps 750 mmHg 90%

    27 Julio, Viernes

    Tiempo Temperatura Precipitaciones Viento Presión Humedad
    00:00 +6°C° 0 mm 4 mps 750 mmHg 89%
    01:00 +6°C° 0 mm 4 mps 749 mmHg 89%
    02:00 +6°C° 0 mm 4 mps 749 mmHg 88%
    03:00 +6°C° 0 mm 4 mps 749 mmHg 86%
    04:00 +7°C° 0 mm 3 mps 748 mmHg 85%
    05:00 +6°C° 0 mm 4 mps 748 mmHg 83%
    06:00 +7°C° 0 mm 4 mps 748 mmHg 81%
    07:00 +7°C° 0 mm 4 mps 748 mmHg 79%
    08:00 +7°C° 0,3 mm 4 mps 748 mmHg 82%
    09:00 +8°C° 0,3 mm 4 mps 748 mmHg 85%
    10:00 +8°C° 0,3 mm 4 mps 748 mmHg 88%
    11:00 +8°C° 1,5 mm 4 mps 747 mmHg 89%
    12:00 +8°C° 1,5 mm 5 mps 746 mmHg 91%
    13:00 +8°C° 1,5 mm 5 mps 746 mmHg 93%
    14:00 +8°C° 1,1 mm 5 mps 745 mmHg 93%
    15:00 +8°C° 1,1 mm 5 mps 745 mmHg 93%
    16:00 +8°C° 1,1 mm 5 mps 744 mmHg 93%
    17:00 +8°C° 0,1 mm 5 mps 744 mmHg 93%
    18:00 +8°C° 0,1 mm 4 mps 744 mmHg 93%
    19:00 +9°C° 0,1 mm 3 mps 744 mmHg 92%
    20:00 +9°C° 0,4 mm 3 mps 744 mmHg 93%
    21:00 +9°C° 0,4 mm 3 mps 744 mmHg 94%
    22:00 +9°C° 0,4 mm 3 mps 744 mmHg 95%
    23:00 +9°C° 0,4 mm 2 mps 743 mmHg 95%
    Mostrar más